Date String (YYYY-MM-DD hh:mm:ss) UTC,Instrument flags,Ambient pressure (hPa),Sample flow (lpm),Bypass flow (lpm),Sample temperature (°C),Ambient temperature (°C),ASC tube jacket temperature (°C),LED temperature (°C),Box temperature (°C),Sample RH (%),Span deviation,Mass concentration (μg/m³),Mass concentration (μg/m³),Mass concentration (μg/m³)
DateTimeUTC,F1_M11,P_M11,Q1_M11,Q2_M11,T1_M11,T2_M11,T3_M11,T4_M11,T5_M11,U1_M11,ZSPAN_M11,X0_M11,X2_M11,X1_M11
2022-03-26 13:00:00,,0824.3,5.00,0.00,25.1,24.2,00.0,34.2,26.8,10.9,0000.0,0011.51,0004.33,0002.28
2022-03-26 13:01:00,,0824.2,5.01,0.00,25.1,24.2,00.0,34.2,26.8,11.1,0000.0,0011.21,0004.32,0002.27
2022-03-26 13:02:00,,0824.2,5.00,0.00,25.0,24.1,00.0,34.2,26.8,11.1,0000.0,0011.57,0004.35,0002.27
2022-03-26 13:03:00,,0824.3,4.99,0.00,25.0,24.1,00.0,34.1,26.8,11.1,0000.0,0011.80,0004.35,0002.26
2022-03-26 13:04:00,,0824.3,5.00,0.00,25.0,24.1,00.0,34.1,26.8,11.3,0000.0,0012.07,0004.36,0002.27
2022-03-26 13:05:00,,0824.5,5.01,0.00,25.0,24.2,00.0,34.1,26.8,11.5,0000.0,0012.13,0004.35,0002.27
2022-03-26 13:06:00,,0824.4,5.00,0.00,25.0,24.2,00.0,34.1,26.8,11.4,0000.0,0012.07,0004.33,0002.24
2022-03-26 13:07:00,,0824.4,4.99,0.00,25.0,24.2,00.0,34.1,26.8,11.3,0000.0,0012.10,0004.31,0002.20
2022-03-26 13:08:00,,0824.7,5.00,0.00,25.0,24.2,00.0,34.1,26.8,11.3,0000.0,0012.15,0004.29,0002.16
2022-03-26 13:09:00,,0824.4,5.00,0.00,25.1,24.3,00.0,34.1,26.8,11.3,0000.0,0011.34,0004.25,0002.13
2022-03-26 13:10:00,,0824.4,5.00,0.00,25.1,24.3,00.0,34.1,26.9,11.3,0000.0,0011.04,0004.23,0002.11
2022-03-26 13:11:00,,0824.4,5.01,0.00,25.1,24.3,00.0,34.1,26.9,11.2,0000.0,0011.26,0004.25,0002.10
2022-03-26 13:12:00,,0824.4,5.01,0.00,25.1,24.3,00.0,34.1,26.9,11.0,0000.0,0011.55,0004.28,0002.09
2022-03-26 13:13:00,,0824.5,5.01,0.00,25.1,24.3,00.0,34.1,26.9,11.0,0000.0,0011.33,0004.28,0002.08
2022-03-26 13:14:00,,0824.4,5.00,0.00,25.2,24.3,00.0,34.1,26.9,11.0,0000.0,0010.96,0004.28,0002.09
2022-03-26 13:15:00,,0824.4,4.99,0.00,25.2,24.4,00.0,34.1,27.0,10.9,0000.0,0010.75,0004.31,0002.07
2022-03-26 13:16:00,,0824.3,4.99,0.00,25.2,24.4,00.0,34.1,27.0,10.8,0000.0,0010.58,0004.28,0002.07
2022-03-26 13:17:00,,0824.4,5.00,0.00,25.2,24.4,00.0,34.1,27.0,10.8,0000.0,0010.41,0004.24,0002.08
2022-03-26 13:18:00,,0824.4,5.00,0.00,25.2,24.4,00.0,34.2,27.0,10.9,0000.0,0010.44,0004.24,0002.08
2022-03-26 13:19:00,,0824.4,5.00,0.00,25.2,24.4,00.0,34.2,27.1,10.8,0000.0,0010.27,0004.21,0002.09
2022-03-26 13:20:00,,0824.4,5.00,0.00,25.2,24.4,00.0,34.2,27.1,10.8,0000.0,0010.39,0004.17,0002.09
2022-03-26 13:21:00,,0824.4,5.01,0.00,25.2,24.5,00.0,34.2,27.1,10.9,0000.0,0010.39,0004.12,0002.07
2022-03-26 13:22:00,,0824.4,5.00,0.00,25.3,24.5,00.0,34.2,27.1,11.0,0000.0,0010.12,0004.08,0002.05
2022-03-26 13:23:00,,0824.4,4.99,0.00,25.3,24.5,00.0,34.2,27.1,11.1,0000.0,0010.30,0004.01,0002.01
2022-03-26 13:24:00,,0824.4,5.00,0.00,25.3,24.5,00.0,34.2,27.2,11.2,0000.0,0010.82,0003.95,0002.00
2022-03-26 13:25:00,,0824.4,5.01,0.00,25.3,24.6,00.0,34.2,27.2,11.4,0000.0,0010.80,0003.91,0001.98
2022-03-26 13:26:00,,0824.4,5.01,0.00,25.3,24.6,00.0,34.2,27.2,11.2,0000.0,0010.78,0003.90,0001.99
2022-03-26 13:27:00,,0824.5,4.99,0.00,25.3,24.5,00.0,34.2,27.1,11.0,0000.0,0010.84,0003.89,0001.98
2022-03-26 13:28:00,,0824.5,4.99,0.00,25.3,24.6,00.0,34.2,27.1,11.5,0000.0,0011.63,0003.96,0001.98
2022-03-26 13:29:00,,0824.6,5.00,0.00,25.3,24.6,00.0,34.3,27.2,10.9,0000.0,0011.93,0003.99,0001.97
2022-03-26 13:30:00,,0824.6,5.00,0.00,25.4,24.6,00.0,34.3,27.2,11.1,0000.0,0012.02,0003.95,0001.94
2022-03-26 13:31:00,,0824.6,5.00,0.00,25.4,24.6,00.0,34.3,27.2,12.4,0000.0,0011.97,0004.00,0001.97
2022-03-26 13:32:00,,0824.5,5.00,0.00,25.4,24.6,00.0,34.3,27.2,11.9,0000.0,0011.91,0004.05,0001.99
2022-03-26 13:33:00,,0824.5,5.00,0.00,25.4,24.6,00.0,34.3,27.3,11.6,0000.0,0011.70,0004.07,0002.00
2022-03-26 13:34:00,,0824.5,5.01,0.00,25.4,24.7,00.0,34.3,27.3,10.9,0000.0,0011.34,0004.10,0002.02
2022-03-26 13:35:00,,0824.6,5.00,0.00,25.4,24.6,00.0,34.3,27.3,10.7,0000.0,0010.85,0004.15,0002.03
2022-03-26 13:36:00,,0824.5,4.99,0.00,25.4,24.6,00.0,34.3,27.3,10.7,0000.0,0011.02,0004.14,0002.02
2022-03-26 13:37:00,,0824.4,5.00,0.00,25.4,24.6,00.0,34.3,27.3,11.0,0000.0,0010.87,0004.05,0002.00
2022-03-26 13:38:00,,0824.4,4.99,0.00,25.4,24.6,00.0,34.4,27.3,10.9,0000.0,0010.76,0004.04,0002.01
2022-03-26 13:39:00,,0824.5,5.00,0.00,25.4,24.7,00.0,34.4,27.3,11.0,0000.0,0010.23,0004.02,0002.01
2022-03-26 13:40:00,,0824.6,5.01,0.00,25.5,24.7,00.0,34.4,27.3,11.2,0000.0,0010.21,0004.00,0002.01
2022-03-26 13:41:00,,0824.6,5.00,0.00,25.5,24.7,00.0,34.4,27.3,11.6,0000.0,0010.57,0004.06,0002.02
2022-03-26 13:42:00,,0824.6,5.00,0.00,25.5,24.7,00.0,34.4,27.3,11.4,0000.0,0012.01,0004.04,0002.01
2022-03-26 13:43:00,,0824.5,5.00,0.00,25.5,24.7,00.0,34.4,27.3,11.2,0000.0,0012.11,0004.06,0002.02
2022-03-26 13:44:00,,0824.5,5.00,0.00,25.5,24.8,00.0,34.4,27.4,11.1,0000.0,0012.90,0004.08,0002.01
2022-03-26 13:45:00,,0824.4,4.98,0.00,25.6,24.8,00.0,34.4,27.4,11.0,0000.0,0013.09,0004.10,0002.01
2022-03-26 13:46:00,,0824.4,5.00,0.00,25.6,24.8,00.0,34.4,27.5,11.0,0000.0,0013.10,0004.09,0001.99
2022-03-26 13:47:00,,0824.5,5.01,0.00,25.6,24.8,00.0,34.4,27.5,10.9,0000.0,0012.72,0004.07,0001.98
2022-03-26 13:48:00,,0824.6,5.00,0.00,25.6,24.9,00.0,34.5,27.5,10.9,0000.0,0012.76,0004.11,0001.97
2022-03-26 13:49:00,,0824.5,5.00,0.00,25.6,24.9,00.0,34.5,27.5,10.9,0000.0,0013.27,0004.24,0002.00
2022-03-26 13:50:00,,0824.5,4.99,0.00,25.6,24.9,00.0,34.5,27.5,10.8,0000.0,0013.27,0004.21,0001.98
2022-03-26 13:51:00,,0824.5,5.00,0.00,25.6,24.9,00.0,34.5,27.5,10.9,0000.0,0012.93,0004.18,0001.95
2022-03-26 13:52:00,,0824.4,5.01,0.00,25.6,24.9,00.0,34.5,27.5,10.9,0000.0,0012.75,0004.15,0001.95
2022-03-26 13:53:00,,0824.4,5.00,0.00,25.6,24.9,00.0,34.5,27.5,10.9,0000.0,0011.32,0004.12,0001.94
2022-03-26 13:54:00,,0824.6,5.01,0.00,25.7,24.9,00.0,34.5,27.5,10.8,0000.0,0011.10,0004.04,0001.89
2022-03-26 13:55:00,,0824.6,5.00,0.00,25.7,24.9,00.0,34.5,27.5,10.8,0000.0,0010.38,0004.01,0001.89
2022-03-26 13:56:00,,0824.6,4.99,0.00,25.7,24.9,00.0,34.6,27.5,11.0,0000.0,0010.64,0003.99,0001.87
2022-03-26 13:57:00,,0824.4,5.00,0.00,25.7,24.9,00.0,34.6,27.6,11.0,0000.0,0010.62,0004.03,0001.88
2022-03-26 13:58:00,,0824.4,4.99,0.00,25.7,25.0,00.0,34.6,27.6,11.0,0000.0,0010.64,0004.05,0001.87
2022-03-26 13:59:00,,0824.4,5.00,0.00,25.7,25.0,00.0,34.6,27.6,11.2,0000.0,0010.61,0004.03,0001.87
